AirNav   Air Wisconsin Airman Trainee
 
 244 users online  

2MO5 Pegasus Ranch Aerodrome
Houston, Missouri, USA

GOING TO HOUSTON?


FAA INFORMATION EFFECTIVE 28 FEBRUARY 2019

Location

FAA Identifier: 2MO5
Lat/Long: 37-22-55.1690N / 092-12-38.5800W
37-22.919483N / 092-12.643000W
37.3819914 / -92.2107167
(estimated)
Elevation: 1430 ft. / 436 m (estimated)
Variation: 03E (1985)
From city: 12 miles NW of HOUSTON, MO
Time zone: UTC -6 (UTC -5 during Daylight Saving Time)
Zip code: 65484

Airport Operations

Airport use: Private use. Permission required prior to landing
Activation date: 08/1973
Control tower: no
ARTCC: KANSAS CITY CENTER
FSS: COLUMBIA FLIGHT SERVICE STATION
Attendance: UNATNDD
Wind indicator: yes
Segmented circle: no

Nearby radio navigation aids

VOR radial/distance  VOR name  Freq  Var
TBNr186/(21.9)FORNEY VOR110.0003E
MAPr232/23.7MAPLES VORTAC113.4006E
DGDr055/38.4DOGWOOD VORTAC109.4001E

 
NDB name  Hdg/Dist  Freq  Var  ID
BUCKHORN192/19.639103EBHN -... .... -.

Airport Services

Airframe service: NONE
Powerplant service: NONE

Runway Information

Runway 1/19

Dimensions: 2700 x 100 ft. / 823 x 30 m
Surface: turf
RUNWAY 1  RUNWAY 19
Traffic pattern: leftleft
Obstructions: other
TREES PLINE
other
TREES PLINE

Airport Ownership and Management from official FAA records

Ownership: Privately-owned
Owner: KENT CLOTFELTER
9098 HIGHWAY M
HUGGINS, MO 65484
Phone 417-926-3013

Airport Operational Statistics

Aircraft based on the field: 1
Single engine airplanes: 1
    

Instrument Procedures

There are no published instrument procedures at 2MO5.

Some nearby airports with instrument procedures:

M48 - Houston Memorial Airport (12 nm E)
KTVB - Cabool Memorial Airport (16 nm S)
1MO - Mountain Grove Memorial Airport (16 nm S)
KTBN - Waynesville-St. Robert Regional Airport-Forney Field (22 nm N)
KLBO - Floyd W Jones Lebanon Airport (26 nm NW)
 
Loc | Ops | Rwys | IFR | FBO | Links
Com | Nav | Svcs | Stats | Notes

Kansas City Aviation Department
 
Area around 2MO5 (Pegasus Ranch Aerodrome)
 
Road maps at: MapQuest Bing Google
 
Aerial photo
No photo
 
Sectional chart

 
Airport distance calculator
Flying to Pegasus Ranch Aerodrome? Find the distance to fly.

From to 2MO5

Sunrise and sunset
Times for 20-Mar-2019
 Local
(UTC-5)
 Zulu
(UTC)
Morning civil twilight06:4711:47
Sunrise07:1312:13
Sunset19:1900:19
Evening civil twilight19:4500:45

Current date and time
Zulu (UTC)  20-Mar-2019 08:24:27
Local (UTC-5)  20-Mar-2019 03:24:27
 
METAR
KTBN 
21nm N 
200756Z AUTO 17009G18KT 10SM BKN070 BKN110 10/M01 A3014 RMK AO2 SLP208 P0000 T00991006 $
KLBO 
26nm NW 
200755Z AUTO 20006KT 10SM -RA CLR 10/00 A3016 RMK AO2
KUNO 
33nm SE 
200753Z AUTO 18008KT 10SM OVC080 09/M01 A3021 RMK AO2 SLP227 T00891006
TAF
NOTAMs
Click for the latest NOTAMs
NOTAMs are issued by the DoD/FAA and will open in a separate window not controlled by AirNav.

 

 
 

Would you like to see your business listed on this page?

 If your business provides an interesting product or service to pilots, flight crews, aircraft, or users of the Pegasus Ranch Aerodrome, you should consider listing it here.  To start the listing process, click on the button below
 
Add a business
 

Other Pages about Pegasus Ranch Aerodrome

Update a link
 
Copyright © AirNav, LLC. All rights reserved. Privacy Policy  Contact